[[{"header":{"parameterUnit":"m.s-1","parameterCategory":1,"la1":30.2991,"la2":30.254,"lo1":-89.0895,"lo2":-89.0444,"dy":0.0017,"dx":0.0017,"nx":28,"ny":28,"refTime":"2025-04-03T21:00:00:Z","depth":0,"parameterNumber":2,"parameterNumberName":"U-component_of_WINDS"},"data":[0,0,0,0,0,0,0,0,0,0,0,0,0,0,0,0,0,0,0,0,0,0,0,0,0,0,0,0,0,0,0,0,0,0,0,0,0,0,0,0,0,0,0,0,0,0,0,0,0,0,0,0,0,0,0,0,0,0,-4.1746,-4.1747,0,-4.187,-4.1871,-4.1872,-4.1892,-4.1891,-4.189,-4.1889,-4.2014,-4.2018,-4.2022,0,0,0,0,0,0,0,0,0,0,0,0,0,-4.1525,-4.1529,-4.1746,-4.1747,-4.1749,-4.1869,-4.1871,-4.1873,-4.1892,-4.1891,-4.1889,-4.1888,-4.2012,-4.2017,-4.2023,0,0,0,0,0,0,0,0,0,0,0,0,0,-4.1632,-4.1531,-4.1745,-4.1773,-4.1777,-4.1869,-4.1871,-4.1873,-4.1892,-4.1891,-4.1889,-4.1887,-4.2011,-4.2017,-4.2023,-4.2096,0,0,-4.2043,-4.2046,0,0,0,0,0,0,0,0,-4.1626,-4.164,-4.1767,-4.1771,-4.1776,-4.1864,-4.1839,-4.1948,-4.1893,-4.1848,-4.1889,-4.1887,-4.1965,-4.1975,-4.2002,-4.2102,-4.2108,-4.2044,-4.2048,-4.2051,-4.2052,0,0,0,0,0,0,0,-4.1619,-4.1635,-4.1795,-4.1769,-4.1774,-4.1779,-4.1792,-4.186,-4.1914,-4.1852,-4.1854,-4.1868,-4.1967,-4.1996,-4.2005,-4.2109,-4.2044,-4.2049,-4.2053,-4.2056,-4.2277,-4.2279,0,0,0,0,0,0,-4.1606,-4.1629,-4.1791,-4.1798,-4.1695,-4.1784,-4.1799,-4.1837,-4.1914,-4.1924,-4.187,-4.1869,-4.1985,-4.1997,-4.2009,-4.21,-4.2051,-4.2057,-4.206,-4.2275,-4.2277,-4.2279,0,0,0,0,0,0,-4.1602,-4.1621,-4.1786,-4.1714,-4.1736,-4.179,-4.1832,-4.184,-4.1869,-4.1927,-4.1936,-4.1889,-4.1984,-4.2,-4.2075,-4.2105,-4.206,-4.2066,-4.2273,-4.2276,-4.2278,-4.2282,0,0,0,0,0,0,-4.1595,-4.1619,-4.1647,-4.1715,-4.1739,-4.1849,-4.1834,-4.1844,-4.188,-4.188,-4.1948,-4.1957,-4.1984,-4.2065,-4.2081,-4.2113,-4.2071,-4.227,-4.2274,-4.2277,-4.2279,-4.2284,-4.2289,0,0,0,0,0,-4.1587,-4.1643,-4.1648,-4.1668,-4.1776,-4.1851,-4.1865,-4.1896,-4.1883,-4.1912,-4.1949,-4.1955,-4.2099,-4.2073,-4.2091,-4.2125,-4.2268,-4.2273,-4.2277,-4.2277,-4.2283,-4.2289,0,0,0,0,0,0,-4.1576,-4.1652,-4.1659,-4.1738,-4.1788,-4.1854,-4.1891,-4.1901,-4.1955,-4.1953,-4.1989,-4.2004,-4.2077,-4.2109,-4.2078,-4.22,-4.2183,-4.2191,-4.2176,-4.2183,-4.2188,-4.2178,-4.2076,0,0,0,0,0,-4.1583,-4.1638,-4.1701,-4.1765,-4.179,-4.1836,-4.187,-4.189,-4.1942,-4.1963,-4.2006,-4.2057,-4.2114,-4.215,-4.2206,-4.2285,-4.23,-4.2317,-4.2322,-4.2326,-4.2332,-4.2376,-4.2385,-4.2294,-4.2294,-4.2294,0,0,-4.1597,-4.1646,-4.1678,-4.1764,-4.1805,-4.1861,-4.1854,-4.1913,-4.1955,-4.1972,-4.2045,-4.2079,-4.2138,-4.2215,-4.2251,-4.2244,-4.2361,-4.2332,-4.2334,-4.2338,-4.2382,-4.239,-4.2398,-4.2297,-4.2296,-4.2296,0,0,-4.1652,-4.1694,-4.1752,-4.1794,-4.1856,-4.1887,-4.1901,-4.1966,-4.1989,-4.2064,-4.2078,-4.2129,-4.2226,-4.2268,-4.2301,-4.2374,-4.2381,-4.2391,-4.2416,-4.2459,-4.2466,-4.2472,-4.2498,-4.2507,-4.2398,-4.2398,-4.2398,0,-4.1661,-4.1747,-4.178,-4.1839,-4.1876,-4.1897,-4.1955,-4.1994,-4.2071,-4.2096,-4.2088,-4.2211,-4.2252,-4.2339,-4.2357,-4.2384,-4.2401,-4.2383,-4.2462,-4.2469,-4.2476,-4.25,-4.251,-4.2398,-4.2398,-4.2398,-4.2398,0,-4.1755,-4.1814,-4.1853,-4.1928,-4.197,-4.2029,-4.2071,-4.211,-4.2126,-4.2158,-4.2234,-4.2285,-4.2351,-4.2374,-4.239,-4.2464,-4.2457,-4.2455,-4.2438,-4.2485,-4.2508,-4.2518,-4.2399,-4.2399,-4.2399,-4.2399,0,0,-4.1804,-4.1898,-4.1912,-4.1946,-4.2018,-4.2064,-4.2124,-4.219,-4.2222,-4.2275,-4.2326,-4.2409,-4.2408,-4.2447,-4.2468,-4.2506,-4.256,-4.2499,-4.2501,-4.2508,-4.2644,-4.2644,-4.2655,-4.2566,-4.2568,-4.257,-4.2639,0,-4.1866,-4.1974,-4.2006,-4.2096,-4.2151,-4.2172,-4.2225,-4.2274,-4.2306,-4.2357,-4.2393,-4.2451,-4.2445,-4.2468,-4.2507,-4.2545,-4.2588,-4.2541,-4.2613,-4.2615,-4.2596,-4.2667,-4.2668,-4.273,-4.2649,-4.265,-4.2651,0,-4.1953,-4.2008,-4.2104,-4.2169,-4.2194,-4.224,-4.2303,-4.2352,-4.2409,-4.243,-4.2474,-4.2493,-4.2556,-4.2537,-4.2625,-4.2593,-4.2625,-4.2648,-4.2651,-4.2658,-4.2635,-4.2675,-4.2751,-4.276,-4.2666,-4.2665,-4.2664,0,-4.1978,-4.2077,-4.2147,-4.2176,-4.2254,-4.2286,-4.2321,-4.2376,-4.2414,-4.247,-4.2494,-4.2557,-4.259,-4.2638,-4.2673,-4.2656,-4.2758,-4.2742,-4.2776,-4.2776,-4.2795,-4.2793,-4.2877,-4.2818,-4.2818,-4.2818,-4.2818,0,-4.2043,-4.2101,-4.216,-4.2202,-4.2268,-4.2305,-4.2369,-4.2404,-4.2454,-4.2504,-4.2526,-4.2572,-4.2617,-4.267,-4.2698,-4.2766,-4.2781,-4.28,-4.2806,-4.2797,-4.2795,-4.2817,-4.2813,-4.282,-4.282,-4.2819,-4.2819,0,-4.2082,-4.2124,-4.2201,-4.227,-4.2288,-4.2333,-4.2392,-4.2434,-4.2468,-4.2531,-4.2548,-4.2601,-4.2664,-4.2705,-4.2785,-4.2804,-4.2879,-4.2884,-4.2859,-4.2862,-4.2894,-4.289,-4.2994,-4.3009,-4.2941,-4.2942,-4.2942,0,-4.212,-4.2165,-4.2239,-4.2274,-4.2308,-4.2365,-4.2404,-4.2444,-4.2483,-4.2552,-4.2587,-4.2652,-4.2705,-4.2806,-4.2851,-4.2913,-4.2919,-4.2952,-4.2929,-4.2918,-4.2919,-4.2915,-4.292,-4.2955,-4.2955,-4.2956,-4.2956,0,-4.2184,-4.2203,-4.2258,-4.2321,-4.2367,-4.2419,-4.247,-4.2498,-4.2546,-4.259,-4.2655,-4.2697,-4.278,-4.2844,-4.291,-4.2945,-4.2959,-4.2963,-4.2974,-4.2965,-4.2948,-4.2957,-4.2868,-4.296,-4.296,-4.2959,-4.2959,-4.2959,-4.2223,-4.2264,-4.2322,-4.2384,-4.2427,-4.2475,-4.2518,-4.2558,-4.2613,-4.2684,-4.2704,-4.2772,-4.2829,-4.2919,-4.2956,-4.301,-4.3006,-4.3022,-4.3026,-4.3029,-4.3029,-4.2941,-4.3022,-4.3022,-4.3022,-4.3022,-4.3022,0,-4.2287,-4.2326,-4.2382,-4.2454,-4.2502,-4.2512,-4.257,-4.261,-4.2669,-4.2722,-4.2775,-4.285,-4.2913,-4.2964,-4.3028,-4.3062,-4.307,-4.3077,-4.3075,-4.3082,-4.3029,-4.3013,-4.307,-4.307,-4.307,-4.307,-4.307,-4.307,-4.2326,-4.2396,-4.2422,-4.2514,-4.2552,-4.2619,-4.2652,-4.2696,-4.2738,-4.2821,-4.2874,-4.2907,-4.2959,-4.3028,-4.3086,-4.3099,-4.3122,-4.3128,-4.3142,-4.3092,-4.3086,-4.3081,-4.3066,-4.3133,-4.3133,-4.3191,-4.3191,-4.3192]},{"header":{"parameterUnit":"m.s-1","parameterCategory":1,"la1":30.2991,"la2":30.254,"lo1":-89.0895,"lo2":-89.0444,"dy":0.0017,"dx":0.0017,"nx":28,"ny":28,"refTime":"2025-04-03T21:00:00:Z","depth":0,"parameterNumber":3,"parameterNumberName":"V-component_of_WINDS"},"data":[0,0,0,0,0,0,0,0,0,0,0,0,0,0,0,0,0,0,0,0,0,0,0,0,0,0,0,0,0,0,0,0,0,0,0,0,0,0,0,0,0,0,0,0,0,0,0,0,0,0,0,0,0,0,0,0,0,0,5.7507,5.7508,0,5.7588,5.7589,5.759,5.758,5.7579,5.7577,5.7576,5.7654,5.7658,5.7661,0,0,0,0,0,0,0,0,0,0,0,0,0,5.7339,5.7342,5.7507,5.7508,5.7509,5.7588,5.7589,5.7591,5.758,5.7578,5.7577,5.7575,5.7653,5.7657,5.7661,0,0,0,0,0,0,0,0,0,0,0,0,0,5.7415,5.7343,5.7507,5.7513,5.7515,5.7588,5.7589,5.7591,5.758,5.7578,5.7576,5.7575,5.7652,5.7657,5.7662,5.7732,0,0,5.7677,5.7679,0,0,0,0,0,0,0,0,5.7411,5.7422,5.7511,5.7513,5.7515,5.7572,5.7559,5.7638,5.7581,5.7555,5.7576,5.7574,5.7628,5.7635,5.7655,5.7736,5.7739,5.7677,5.768,5.7683,5.7684,0,0,0,0,0,0,0,5.7406,5.7418,5.7539,5.7513,5.7515,5.7511,5.752,5.7574,5.7602,5.7557,5.7557,5.7567,5.7629,5.765,5.7656,5.774,5.7677,5.7682,5.7685,5.7687,5.7885,5.7887,0,0,0,0,0,0,5.7399,5.7414,5.7536,5.7541,5.7457,5.7516,5.7526,5.7556,5.7601,5.7606,5.7569,5.7566,5.7642,5.765,5.7659,5.7746,5.7682,5.7687,5.769,5.7883,5.7886,5.7888,0,0,0,0,0,0,5.7396,5.741,5.7533,5.7478,5.7493,5.7521,5.7555,5.7558,5.7579,5.761,5.7614,5.7585,5.7641,5.7652,5.7715,5.7749,5.7689,5.7694,5.788,5.7884,5.7887,5.792,0,0,0,0,0,0,5.7391,5.7409,5.7437,5.7478,5.7496,5.7589,5.7557,5.7561,5.7589,5.7586,5.7626,5.7631,5.764,5.7708,5.772,5.7754,5.7698,5.7877,5.7882,5.7886,5.7916,5.7924,5.7931,0,0,0,0,0,5.7385,5.7441,5.7438,5.7453,5.7531,5.7591,5.7601,5.7611,5.7591,5.7619,5.7639,5.763,5.7743,5.7714,5.7728,5.7764,5.7875,5.7881,5.7886,5.7912,5.7922,5.7931,0,0,0,0,0,0,5.74,5.7446,5.7444,5.7515,5.7549,5.7589,5.7624,5.7621,5.766,5.7656,5.7667,5.7676,5.774,5.7758,5.7725,5.7836,5.7806,5.7814,5.7822,5.7831,5.7839,5.7833,5.7702,0,0,0,0,0,5.7412,5.7458,5.7495,5.7554,5.7572,5.7595,5.7621,5.7627,5.7662,5.7676,5.77,5.7734,5.7777,5.7805,5.7846,5.7918,5.7927,5.795,5.7958,5.7964,5.7971,5.8012,5.8023,5.7905,5.7905,5.7905,0,0,5.7437,5.7468,5.7495,5.7558,5.7586,5.7632,5.7607,5.7657,5.7691,5.7683,5.7745,5.7764,5.7802,5.787,5.7902,5.7887,5.8006,5.797,5.7975,5.7979,5.8019,5.803,5.804,5.7909,5.7908,5.7908,0,0,5.7506,5.7533,5.7587,5.7616,5.7658,5.7674,5.7687,5.7727,5.774,5.7803,5.7799,5.7839,5.7913,5.7941,5.7964,5.8047,5.8041,5.806,5.8099,5.8139,5.8149,5.8157,5.8188,5.8199,5.8067,5.8067,5.8067,0,5.753,5.7602,5.7614,5.7666,5.7694,5.7691,5.7746,5.7772,5.7825,5.7844,5.7828,5.7923,5.7948,5.8024,5.8044,5.8063,5.8078,5.8055,5.8147,5.8155,5.8163,5.8193,5.8204,5.8069,5.8069,5.8068,5.8068,0,5.7631,5.7681,5.7719,5.7773,5.7805,5.7858,5.7878,5.7909,5.7913,5.793,5.7994,5.8024,5.8073,5.8091,5.8094,5.8168,5.8159,5.8144,5.8115,5.8176,5.8205,5.8216,5.8072,5.8071,5.8071,5.807,0,0,5.7711,5.7774,5.7787,5.7813,5.7861,5.7899,5.7952,5.8001,5.8029,5.8065,5.811,5.8174,5.8162,5.8189,5.8195,5.823,5.8296,5.8212,5.8213,5.8228,5.8382,5.8393,5.8406,5.8292,5.8294,5.8296,5.8379,0,5.7786,5.7881,5.7895,5.7979,5.8026,5.8024,5.807,5.8104,5.8122,5.8164,5.8182,5.8228,5.8208,5.8225,5.826,5.8281,5.8327,5.8275,5.8334,5.8336,5.8326,5.842,5.8432,5.8509,5.839,5.8392,5.8393,0,5.7885,5.7929,5.8018,5.8062,5.8082,5.8123,5.8171,5.8211,5.8249,5.826,5.8292,5.8294,5.8348,5.8317,5.8392,5.8356,5.8381,5.8395,5.8398,5.8405,5.8369,5.8431,5.8534,5.8546,5.841,5.8409,5.8408,0,5.7937,5.8017,5.8081,5.8103,5.8155,5.8185,5.8207,5.8244,5.8274,5.8315,5.8335,5.8381,5.8406,5.8442,5.8456,5.8432,5.8532,5.85,5.8542,5.8542,5.8563,5.8562,5.8673,5.8578,5.8577,5.8577,5.8577,0,5.802,5.8075,5.8106,5.8145,5.8207,5.8222,5.8283,5.8304,5.8338,5.8381,5.8382,5.8422,5.8439,5.8482,5.8493,5.8555,5.8566,5.8576,5.8578,5.8577,5.8576,5.8594,5.8589,5.858,5.858,5.8579,5.8578,0,5.8088,5.8111,5.8181,5.8226,5.8239,5.8282,5.832,5.8359,5.8377,5.8432,5.8446,5.8473,5.8525,5.8543,5.8603,5.8611,5.8684,5.8681,5.8671,5.8672,5.8713,5.871,5.8841,5.886,5.875,5.8751,5.8752,0,5.814,5.8183,5.8233,5.8264,5.8289,5.8337,5.8368,5.8385,5.8417,5.8466,5.8499,5.855,5.8592,5.8674,5.8699,5.8746,5.8745,5.8788,5.8752,5.875,5.8748,5.8746,5.8751,5.8795,5.8796,5.8797,5.8797,0,5.823,5.824,5.8286,5.8337,5.8376,5.8416,5.8454,5.8479,5.8501,5.8538,5.8591,5.8624,5.8689,5.874,5.8789,5.8811,5.8808,5.8809,5.8821,5.882,5.8814,5.882,5.8691,5.8805,5.8805,5.8804,5.8804,5.8803,5.8293,5.8332,5.8375,5.8427,5.8459,5.8496,5.8535,5.8559,5.8605,5.866,5.8666,5.8724,5.8763,5.8829,5.8854,5.8899,5.8887,5.8904,5.8909,5.8914,5.8918,5.8806,5.8907,5.8907,5.8907,5.8907,5.8907,0,5.8385,5.8413,5.8461,5.8517,5.8558,5.8554,5.8598,5.8632,5.8684,5.8721,5.8764,5.8826,5.8876,5.8906,5.8957,5.8987,5.8987,5.9,5.8998,5.9004,5.8924,5.891,5.8999,5.8999,5.8999,5.8999,5.8999,5.8999,5.8438,5.8505,5.852,5.8603,5.863,5.8689,5.8714,5.8748,5.8779,5.8849,5.8892,5.8912,5.8947,5.9,5.9046,5.9053,5.9072,5.9086,5.9093,5.9018,5.9009,5.9,5.8986,5.909,5.909,5.9169,5.9169,5.917]}]]